DIRECTV 4S

Last updated on Nov. 14, 2019, 4:21 a.m. UTC

1 26985U 01052A   19317.16964822  .00000067  00000-0  00000+0 0  9999
2 26985   0.1877  93.8465 0002427 268.1720   0.2134  0.99296389 65850
UTC
Height (km)
Latitude
Longitude
Inclination
Orbital Period
UTC large
Height (km)
Speed (km/s)
/
Latitude / Longitude
Inclination (degrees)
Orbital Period (minutes)
Azimuth
Elevation
Range (km)
Doppler Factor
iOS Compass Heading
iOS Angle

Next 30 passes for location: Hong Kong

Rise time Rise Azimuth (degrees) Set time Set Azimuth (degrees) Duration Max altitude (degrees)

No matching passes for this satellites